Regional Weather Roundup
Issued by NWS Sterling, VA

Home | Current Version | Previous Version | Graphics & Text | Print | Product List | Glossary On
Versions: 1 2 3 4 5 6 7 8 9 10 11 12 13 14 15 16 17 18 19 20 21 22 23 24 25 26 27 28
000
ASUS41 KLWX 012210
RWRLWX

REGIONAL WEATHER ROUNDUP
NATIONAL WEATHER SERVICE BALTIMORE MD/WASHINGTON DC
600 PM EDT SUN MAY 01 2016

Note: "FAIR" indicates few or no clouds below 12,000 feet
with no significant weather and/or obstructions to visibility.
 TC=TEMPERATURE CELSIUS

 * =Non NWS site. Station does not report precipitation (e.g. rain,
    snow, etc.), thunder, or fog.

DCZ001-MDZ009-015-VAZ040>042-051-053>054-012300-
WASHINGTON METRO

CITY           SKY/WX    TMP DP  RH WIND       PRES   REMARKS
WASHINGTON NAT CLOUDY    58  55  90 SE6       30.01F
DULLES         CLOUDY    58  55  90 SE6       30.00F
ANDREWS AFB    CLOUDY    56  54  94 SE7       30.01S FOG
FT BELVOIR     CLOUDY    59  55  88 E3        30.00F
QUANTICO       CLOUDY    60  56  86 E6        30.01F
COLLEGE PARK*  CLOUDY    54  54 100 E3        30.02F
LEESBURG*      CLOUDY    59  59 100 SE8       30.00F
MANASSAS*      CLOUDY    59  57  94 SE7       30.00F
GAITHERSBURG*  CLOUDY    55  52  88 E7        30.04F

$$

MDZ006>007-011-014-012300-
BALTIMORE METRO

CITY           SKY/WX    TMP DP  RH WIND       PRES   REMARKS
BWI AIRPORT    DRIZZLE   54  53  97 E7        30.03R FOG
MD SCIENCE CTR   N/A     55  52  89 MISG      30.04S
MARTIN STATE   CLOUDY    55  55 100 E6        30.05S FOG
ANNAPOLIS      CLOUDY    55  54  96 E6        30.03S FOG
FORT MEADE*    CLOUDY    54  52  94 E6        30.04F

$$

MDZ012-015-019>023-012300-
MARYLAND EASTERN SHORE

CITY           SKY/WX    TMP DP  RH WIND       PRES   REMARKS
OCEAN CITY     CLOUDY    56  54  93 E3        30.02F
SALISBURY      CLOUDY    57  56  96 E5        30.02F FOG
CAMBRIDGE*     CLOUDY    54  54 100 CALM      30.02S
EASTON*        CLOUDY   N/A N/A N/A SE5       30.07R FOG

$$

MDZ017>025-012300-
SOUTHERN MARYLAND

CITY           SKY/WX    TMP DP  RH WIND       PRES   REMARKS
PATUXENT RIVER CLOUDY    57  54  89 E5        30.01S
ST INIGOES       N/A    N/A N/A N/A MISG        N/A
LEONARDTOWN*   CLOUDY    55  54  94 CALM      30.03S

$$

MDZ003>005-012300-
NORTH CENTRAL MARYLAND

CITY           SKY/WX    TMP DP  RH WIND       PRES   REMARKS
FREDERICK*     CLOUDY    57  57 100 SE6       30.03F
HAGERSTOWN APT CLOUDY    59  53  80 VRB6      29.99S
WESTMINSTER*   CLOUDY    54  50  87 SE5       30.01F FOG

$$

MDZ501>502-012300-
WESTERN MARYLAND

CITY           SKY/WX    TMP DP  RH WIND       PRES   REMARKS
OAKLAND*       CLOUDY    63  54  72 N3        29.99R
CUMBERLAND*    MOSUNNY   68  59  73 N6        29.98R

$$

VAZ025>031-012300-
SHENANDOAH VALLEY

CITY           SKY/WX    TMP DP  RH WIND       PRES   REMARKS
WINCHESTER*    FAIR      64  55  72 SE9       29.96F
FRONT ROYAL*   FAIR      63  55  77 NE7       29.94F
LURAY*         MOCLDY    70  59  68 NE9       29.93S
NEW MARKET*    CLOUDY    73  63  70 NE8       29.90S
STAUNTON*      FAIR      75  63  66 SE13G18   29.93F
WAYNESBORO*    FAIR      70  60  71 MISG      29.94F

$$

WVZ021-048>050-054>055-012300-
EASTERN WEST VIRGINIA PANHANDLE

CITY           SKY/WX    TMP DP  RH WIND       PRES   REMARKS
MARTINSBURG    CLOUDY    59  54  83 E8        29.97S
PETERSBURG*    FAIR      78  61  56 CALM      29.91F

$$

VAZ036>039-050-012300-
CENTRAL FOOTHILLS

CITY           SKY/WX    TMP DP  RH WIND       PRES   REMARKS
CHARLOTTESVILL CLOUDY    67  59  75 SE7       29.96F
CULPEPER*      CLOUDY    64  60  85 CALM      29.99F
ORANGE*        CLOUDY    64  61  88 CALM      30.00S
GORDONSVILLE*  CLOUDY    65  61  86 CALM      29.97S
WARRENTON*     CLOUDY    62  55  77 E5        29.99F

$$

VAZ055>057-012300-
NORTH AND CENTRAL PIEDMONT

CITY           SKY/WX    TMP DP  RH WIND       PRES   REMARKS
FREDERICKSBRG* CLOUDY    64  60  88 SE5       29.99F
STAFFORD*      CLOUDY    59  56  89 NE6       30.03F

$$

NCZ024-NYZ072-PAZ021-071-VAZ022-071-012300-
OTHER REGIONAL OBSERVATIONS

CITY           SKY/WX    TMP DP  RH WIND       PRES   REMARKS
NEW YORK CITY  LGT RAIN  48  45  89 VRB6      30.13F FOG
PHILADELPHIA   LGT RAIN  53  49  86 NE6       30.07S FOG
PITTSBURGH     TSTM      66  59  78 SW7       29.92R
ROANOKE        PTSUNNY   77  64  64 SE10      29.94F
RICHMOND       CLOUDY    65  63  93 CALM      29.98F
RALEIGH        PTSUNNY   76  65  68 S9        30.00S

$$

ANZ530>537-012300-
MARINE OBSERVATIONS

STATION/POSITION TIME  TEMP    WIND        PRES
                       AIR SEA DIR/SP/G
                 (UTC) (F)     (DEG/KT/KT) (MB)
THOMAS PT LIGHT  2200   54 57   90/  6/  6 1018.2S
BALT KEY BRIDGE  2100   54     100/  8/  9 1016.8F
COVE POINT       2100   55     170/  6/  8 1016.9F
LEWISETTA        2100   60 60   80/  3/  3 1015.8F
SOLOMONS ISLAND  2100   56 59  100/  6/  8   N/A
PINEY POINT      2100          120/  6/  7   N/A

$$





USA.gov is the U.S. government's official web portal to all federal, state and local government web resources and services.